Location: Ferchesar
(52.6477°N, 12.4298°E)
Time: 21:48:24
(UTC+02:00)

Transit 4A - Pass Details

Date: 26 February 2021
Orbit: 868 x 976 km, 66.8° (Epoch: 10 April)

Event Time Altitude Azimuth Distance (km) Brightness Sun altitude
Rises 20:21:37 0° 319° (NW) 3,599 11.9 -24.4°
Reaches altitude 10° 20:24:14 10° 316° (NW) 2,635 11.1 -24.8°
Maximum altitude 20:30:11 57° 240° (WSW) 1,065 8.3 -25.6°
Enters shadow 20:32:22 37° 181° (S) 1,377 8.6 -25.9°
Drops below altitude 10° 20:35:57 10° 163° (SSE) 2,549 - -26.4°
Sets 20:38:26 0° 159° (SSE) 3,473 - -26.8°
